KB9HGI-1 Weather Reports


Display with metric or nautical units.
time (UTC)temp
F
wind
direction
speed
MPH
gust
MPH
rain 1hr
in
rain 24hr
in
rain mn
in
humidity
%
barometer
mb
20260504213651 82 234 4.0 11.0 0.00 0.05 0.05 46 997.6
20260504212650 82 244 4.0 11.0 0.00 0.05 0.05 47 997.6
20260504211618 82 262 7.0 15.0 0.00 0.05 0.05 46 998.0
20260504210618 82 218 4.0 15.0 0.00 0.05 0.05 47 998.0
20260504205617 82 249 9.0 12.0 0.00 0.05 0.05 47 998.0
20260504204616 82 219 5.0 14.0 0.00 0.05 0.05 47 998.0
20260504203616 82 229 5.0 13.0 0.00 0.05 0.05 47 998.0
20260504202544 81 240 6.0 14.0 0.00 0.05 0.05 48 998.3
20260504201543 81 229 4.0 14.0 0.00 0.05 0.05 48 998.3
20260504200543 80 224 6.0 18.0 0.00 0.05 0.05 49 998.6
20260504195542 80 240 7.0 16.0 0.00 0.05 0.05 48 998.6
20260504194542 80 241 9.0 22.0 0.00 0.05 0.05 49 998.6
20260504193541 80 232 8.0 19.0 0.00 0.05 0.05 49 998.6
20260504192540 80 227 7.0 12.0 0.00 0.05 0.05 48 999.0
20260504191540 80 213 6.0 14.0 0.00 0.05 0.05 49 999.0
20260504190539 79 233 5.0 16.0 0.00 0.05 0.05 50 999.0
20260504185507 79 247 8.0 14.0 0.00 0.05 0.05 49 999.0
20260504184507 79 242 8.0 14.0 0.00 0.05 0.05 49 998.6
20260504183506 79 182 5.0 15.0 0.00 0.05 0.05 50 998.6
20260504182505 78 197 6.0 13.0 0.00 0.05 0.05 49 998.6
20260504181505 78 243 5.0 19.0 0.00 0.05 0.05 51 999.0
20260504180433 78 232 9.0 21.0 0.00 0.05 0.05 49 999.0
20260504175432 78 234 6.0 12.0 0.00 0.05 0.05 50 999.0
20260504174431 78 207 6.0 13.0 0.00 0.05 0.05 51 999.3
20260504173431 77 218 6.0 13.0 0.00 0.05 0.05 52 999.3
20260504172430 77 231 11.0 19.0 0.00 0.05 0.05 50 999.3
20260504171430 77 224 5.0 14.0 0.00 0.05 0.05 52 999.7
20260504170429 77 226 6.0 10.0 0.00 0.05 0.05 52 999.7
20260504160322 74 233 9.0 16.0 0.00 0.05 0.05 54 1000.3
20260504150318 72 235 6.0 14.0 0.00 0.05 0.05 60 1000.7
20260504141213 68 234 5.0 9.0 0.00 0.05 0.05 67 1001.0
20260504140213 67 234 5.0 10.0 0.00 0.05 0.05 69 1001.0
20260504130208 64 223 4.0 6.0 0.00 0.05 0.05 75 1001.4
20260504120204 64 331 0.0 5.0 0.00 0.05 0.05 70 1001.4
20260504081843 57 197 0.0 0.0 0.01 0.05 0.05 89 1003.4
20260504080843 57 197 0.0 0.0 0.02 0.05 0.05 89 1003.7
20260504050556 60 265 2.0 3.0 0.00 0.00 0.00 74 1004.7
20260504045555 60 275 0.0 0.0 0.00 0.00 0.00 74 1005.1
20260504044554 60 275 0.0 0.0 0.00 0.00 0.00 74 1005.1
20260504043554 60 275 0.0 0.0 0.00 0.00 0.00 74 1005.1
20260504042554 60 275 0.0 0.0 0.00 0.00 0.00 73 1005.1
20260504041552 60 275 0.0 1.0 0.00 0.00 0.00 73 1005.1
20260504040552 60 275 0.0 0.0 0.00 0.00 0.00 71 1005.4
20260504035551 61 275 0.0 0.0 0.00 0.00 0.00 70 1005.4
20260504034551 61 275 0.0 0.0 0.00 0.00 0.00 69 1005.4
20260504033550 62 275 0.0 0.0 0.00 0.00 0.00 68 1005.4
20260504032518 62 275 0.0 0.0 0.00 0.00 0.00 67 1005.4
20260504031518 63 275 0.0 0.0 0.00 0.00 0.00 66 1005.4
20260504030415 63 275 0.0 0.0 0.00 0.00 0.00 66 1005.4
20260504025414 64 275 0.0 0.0 0.00 0.00 0.00 65 1005.4
20260504024414 64 275 0.0 0.0 0.00 0.00 0.00 64 1005.4
20260504023413 64 275 0.0 0.0 0.00 0.00 0.00 64 1005.4
20260504022412 65 275 0.0 0.0 0.00 0.00 0.00 63 1005.1
20260504021411 65 275 0.0 0.0 0.00 0.00 0.00 62 1005.4
20260504020411 66 275 0.0 0.0 0.00 0.00 0.00 61 1005.4
20260504015410 66 275 0.0 0.0 0.00 0.00 0.00 60 1005.4
20260504014409 67 275 0.0 0.0 0.00 0.00 0.00 60 1005.4
20260504013409 68 275 0.0 0.0 0.00 0.00 0.00 58 1005.4
20260504012408 68 275 0.0 0.0 0.00 0.00 0.00 58 1005.1
20260504011407 69 275 0.0 0.0 0.00 0.00 0.00 57 1005.4
20260504010407 69 275 0.0 0.0 0.00 0.00 0.00 56 1005.4
20260504005406 69 275 0.0 0.0 0.00 0.00 0.00 54 1005.1
20260504004406 70 275 0.0 0.0 0.00 0.00 0.00 54 1005.1
20260504003405 70 275 0.0 2.0 0.00 0.00 0.00 54 1005.4
20260504002405 70 274 4.0 7.0 0.00 0.00 0.00 53 1005.4
20260504001404 70 271 1.0 6.0 0.00 0.00 0.00 53 1005.8
20260504000404 71 274 1.0 1.0 0.00 0.00 0.00 52 1005.4
20260503235403 71 274 0.0 1.0 0.00 0.00 0.00 51 1005.8
20260503234332 71 274 0.0 0.0 0.00 0.00 0.00 51 1005.4
20260503233331 72 274 0.0 3.0 0.00 0.00 0.00 50 1005.8
20260503232330 72 263 0.0 4.0 0.00 0.00 0.00 50 1005.4
20260503231329 72 263 1.0 10.0 0.00 0.00 0.00 50 1005.8
20260503230329 73 284 3.0 9.0 0.00 0.00 0.00 50 1005.8
20260503225328 73 299 4.0 8.0 0.00 0.00 0.00 52 1005.8
20260503224327 73 266 5.0 11.0 0.00 0.00 0.00 51 1005.8
20260503223327 73 277 4.0 11.0 0.00 0.00 0.00 51 1006.1
20260503222326 73 252 5.0 10.0 0.00 0.00 0.00 50 1006.1
20260503221326 73 274 8.0 12.0 0.00 0.00 0.00 50 1006.1
20260503220325 73 270 5.0 8.0 0.00 0.00 0.00 50 1005.8
20260503215324 73 254 5.0 10.0 0.00 0.00 0.00 50 1005.4
20260503214253 73 266 3.0 13.0 0.00 0.00 0.00 50 1005.8